[[{"header":{"parameterUnit":"m.s-1","parameterCategory":1,"la1":30.2991,"la2":30.254,"lo1":-89.0895,"lo2":-89.0444,"dy":0.0017,"dx":0.0017,"nx":28,"ny":28,"refTime":"2025-01-27T09:00:00:Z","depth":0,"parameterNumber":2,"parameterNumberName":"U-component_of_WINDS"},"data":[0,0,0,0,0,0,0,0,0,0,0,0,0,0,0,0,0,0,0,0,0,0,0,0,0,0,0,0,0,0,0,0,0,0,0,0,0,0,0,0,0,0,0,0,0,0,0,0,0,0,0,0,0,0,0,0,0,0,-2.6432,-2.6432,0,-2.6495,-2.6495,-2.6496,-2.6464,-2.6462,-2.6461,-2.6459,-2.6524,-2.6528,-2.6531,0,0,0,0,0,0,0,0,0,0,0,0,0,-2.6285,-2.6288,-2.6432,-2.6432,-2.6433,-2.6494,-2.6495,-2.6496,-2.6464,-2.6462,-2.646,-2.6458,-2.6523,-2.6527,-2.6531,0,0,0,0,0,0,0,0,0,0,0,0,0,-2.6348,-2.6289,-2.6431,-2.6425,-2.6425,-2.6494,-2.6495,-2.6496,-2.6465,-2.6462,-2.646,-2.6457,-2.6522,-2.6527,-2.6532,-2.6612,0,0,-2.6547,-2.6549,0,0,0,0,0,0,0,0,-2.6345,-2.6354,-2.6425,-2.6425,-2.6425,-2.6469,-2.6467,-2.6535,-2.6465,-2.6449,-2.6459,-2.6456,-2.6508,-2.6514,-2.6531,-2.6615,-2.6618,-2.6547,-2.655,-2.6552,-2.6554,0,0,0,0,0,0,0,-2.6341,-2.6351,-2.6456,-2.6426,-2.6426,-2.6419,-2.6425,-2.648,-2.6492,-2.6451,-2.6448,-2.6456,-2.6508,-2.6526,-2.6532,-2.6619,-2.6547,-2.6551,-2.6554,-2.6556,-2.6771,-2.6774,0,0,0,0,0,0,-2.6336,-2.6348,-2.6454,-2.6458,-2.6378,-2.6423,-2.643,-2.6457,-2.6491,-2.6494,-2.6458,-2.6455,-2.6519,-2.6527,-2.6535,-2.663,-2.6552,-2.6557,-2.656,-2.6769,-2.6772,-2.6775,0,0,0,0,0,0,-2.6333,-2.6346,-2.6452,-2.6402,-2.6415,-2.6429,-2.6459,-2.646,-2.6479,-2.6497,-2.6499,-2.6475,-2.6518,-2.6528,-2.6593,-2.6632,-2.6559,-2.6564,-2.6765,-2.677,-2.6773,-2.6823,0,0,0,0,0,0,-2.6329,-2.6345,-2.6376,-2.6403,-2.6418,-2.6509,-2.6462,-2.6463,-2.6487,-2.6483,-2.6514,-2.6516,-2.6516,-2.6586,-2.6598,-2.6638,-2.6567,-2.6762,-2.6767,-2.6772,-2.6818,-2.6828,-2.6837,0,0,0,0,0,-2.6324,-2.6387,-2.6377,-2.639,-2.6456,-2.6511,-2.652,-2.6518,-2.6491,-2.6521,-2.6533,-2.6515,-2.6626,-2.6593,-2.6606,-2.6648,-2.6759,-2.6766,-2.6772,-2.6813,-2.6826,-2.6837,0,0,0,0,0,0,-2.6364,-2.6391,-2.638,-2.6454,-2.648,-2.6506,-2.6544,-2.6532,-2.6567,-2.6562,-2.6559,-2.6566,-2.6633,-2.6647,-2.6609,-2.6727,-2.6689,-2.6698,-2.6716,-2.6728,-2.6737,-2.6732,-2.6571,0,0,0,0,0,-2.6381,-2.6423,-2.6445,-2.6508,-2.6522,-2.6531,-2.6555,-2.6552,-2.6579,-2.659,-2.6607,-2.6635,-2.6675,-2.6703,-2.6741,-2.682,-2.6826,-2.6855,-2.6865,-2.6873,-2.6881,-2.6923,-2.6936,-2.6795,-2.6795,-2.6795,0,0,-2.6418,-2.6437,-2.6464,-2.6516,-2.6537,-2.658,-2.6541,-2.6589,-2.6621,-2.6598,-2.666,-2.6673,-2.6704,-2.6776,-2.6809,-2.679,-2.6921,-2.6881,-2.6887,-2.689,-2.6931,-2.6944,-2.6956,-2.68,-2.6799,-2.6798,0,0,-2.6506,-2.6525,-2.658,-2.6601,-2.6632,-2.6638,-2.6651,-2.6678,-2.6686,-2.6749,-2.6732,-2.6771,-2.6842,-2.6864,-2.6885,-2.6983,-2.6967,-2.6995,-2.7045,-2.7087,-2.7098,-2.7107,-2.7142,-2.7154,-2.7003,-2.7003,-2.7003,0,-2.6547,-2.6612,-2.661,-2.6659,-2.6682,-2.6663,-2.6718,-2.6739,-2.6782,-2.6798,-2.6777,-2.6865,-2.6885,-2.6961,-2.6985,-2.7003,-2.7018,-2.6991,-2.7096,-2.7106,-2.7115,-2.7148,-2.7161,-2.7006,-2.7006,-2.7006,-2.7005,0,-2.6661,-2.6706,-2.6747,-2.6788,-2.6816,-2.6868,-2.6874,-2.6903,-2.6897,-2.6906,-2.697,-2.6992,-2.7035,-2.7053,-2.7049,-2.713,-2.7117,-2.7096,-2.7057,-2.7132,-2.7162,-2.7175,-2.7011,-2.701,-2.7009,-2.7008,0,0,-2.6775,-2.6814,-2.6829,-2.6847,-2.6881,-2.6916,-2.6968,-2.7009,-2.7034,-2.7064,-2.7107,-2.7168,-2.7149,-2.7172,-2.717,-2.7206,-2.7282,-2.7181,-2.7181,-2.7198,-2.7372,-2.7387,-2.7401,-2.7272,-2.7275,-2.7277,-2.7369,0,-2.6865,-2.6954,-2.6954,-2.7037,-2.7079,-2.7062,-2.7106,-2.7132,-2.7141,-2.7178,-2.7189,-2.7232,-2.7203,-2.7217,-2.7253,-2.7265,-2.7316,-2.7258,-2.7312,-2.7314,-2.7304,-2.7417,-2.7433,-2.7519,-2.7381,-2.7383,-2.7384,0,-2.6982,-2.7015,-2.7102,-2.7129,-2.7147,-2.7187,-2.7225,-2.7261,-2.729,-2.7294,-2.7321,-2.7313,-2.7366,-2.7326,-2.7398,-2.7359,-2.7381,-2.7391,-2.7394,-2.7398,-2.7353,-2.7423,-2.7547,-2.7559,-2.7403,-2.7402,-2.74,0,-2.7055,-2.7122,-2.7183,-2.7199,-2.7232,-2.7261,-2.7276,-2.7303,-2.7328,-2.7362,-2.7378,-2.7418,-2.7439,-2.747,-2.7474,-2.7444,-2.7547,-2.7507,-2.7551,-2.7551,-2.7573,-2.7571,-2.77,-2.7589,-2.7589,-2.7588,-2.7588,0,-2.7155,-2.7209,-2.7216,-2.7253,-2.7313,-2.7313,-2.7372,-2.7385,-2.7408,-2.7448,-2.7436,-2.7473,-2.7476,-2.7515,-2.7518,-2.7577,-2.7587,-2.7592,-2.7592,-2.7593,-2.7592,-2.7606,-2.76,-2.7592,-2.7591,-2.759,-2.759,0,-2.7247,-2.7254,-2.7319,-2.7345,-2.7353,-2.7396,-2.7418,-2.7454,-2.7462,-2.7513,-2.7524,-2.7538,-2.7583,-2.7589,-2.7642,-2.7644,-2.7715,-2.771,-2.7705,-2.7704,-2.7748,-2.7743,-2.789,-2.7908,-2.7786,-2.7787,-2.7788,0,-2.7309,-2.735,-2.7381,-2.7406,-2.7423,-2.7464,-2.749,-2.7491,-2.7518,-2.7554,-2.7586,-2.7629,-2.7664,-2.7737,-2.7751,-2.7792,-2.7786,-2.7835,-2.7792,-2.7791,-2.7786,-2.7783,-2.7787,-2.7843,-2.7844,-2.7845,-2.7846,0,-2.742,-2.7421,-2.7458,-2.7497,-2.7528,-2.7558,-2.7587,-2.7609,-2.7614,-2.7645,-2.7691,-2.7718,-2.7772,-2.7815,-2.7855,-2.7871,-2.7859,-2.7859,-2.7872,-2.7872,-2.7867,-2.787,-2.7727,-2.7856,-2.7855,-2.7854,-2.7853,-2.7853,-2.7498,-2.7533,-2.756,-2.7602,-2.7624,-2.7651,-2.7686,-2.7699,-2.7737,-2.778,-2.7779,-2.7829,-2.7857,-2.7909,-2.7928,-2.7968,-2.7952,-2.797,-2.7974,-2.7978,-2.7982,-2.7862,-2.7975,-2.7975,-2.7975,-2.7974,-2.7974,0,-2.7607,-2.7623,-2.7662,-2.7702,-2.7735,-2.7722,-2.7753,-2.7782,-2.7826,-2.7853,-2.7887,-2.794,-2.7982,-2.8,-2.8041,-2.8069,-2.8065,-2.808,-2.8077,-2.8081,-2.7994,-2.7979,-2.8083,-2.8083,-2.8083,-2.8083,-2.8083,-2.8083,-2.7667,-2.7726,-2.7731,-2.7801,-2.7817,-2.7866,-2.7885,-2.791,-2.7931,-2.799,-2.8025,-2.8037,-2.806,-2.8103,-2.8141,-2.8146,-2.8161,-2.8178,-2.818,-2.8098,-2.8087,-2.8077,-2.8062,-2.8182,-2.8182,-2.8264,-2.8264,-2.8265]},{"header":{"parameterUnit":"m.s-1","parameterCategory":1,"la1":30.2991,"la2":30.254,"lo1":-89.0895,"lo2":-89.0444,"dy":0.0017,"dx":0.0017,"nx":28,"ny":28,"refTime":"2025-01-27T09:00:00:Z","depth":0,"parameterNumber":3,"parameterNumberName":"V-component_of_WINDS"},"data":[0,0,0,0,0,0,0,0,0,0,0,0,0,0,0,0,0,0,0,0,0,0,0,0,0,0,0,0,0,0,0,0,0,0,0,0,0,0,0,0,0,0,0,0,0,0,0,0,0,0,0,0,0,0,0,0,0,0,2.0982,2.0982,0,2.0994,2.0994,2.0994,2.0966,2.0965,2.0964,2.0963,2.0976,2.0977,2.0978,0,0,0,0,0,0,0,0,0,0,0,0,0,2.0934,2.0935,2.0982,2.0982,2.0982,2.0994,2.0994,2.0994,2.0966,2.0965,2.0964,2.0963,2.0975,2.0977,2.0978,0,0,0,0,0,0,0,0,0,0,0,0,0,2.0951,2.0935,2.0982,2.0969,2.0968,2.0994,2.0994,2.0995,2.0966,2.0965,2.0963,2.0962,2.0975,2.0976,2.0978,2.1016,0,0,2.0984,2.0984,0,0,0,0,0,0,0,0,2.095,2.0953,2.0971,2.097,2.0969,2.0977,2.0982,2.1002,2.0967,2.0967,2.0963,2.0962,2.0977,2.0979,2.0984,2.1017,2.1018,2.0984,2.0985,2.0986,2.0986,0,0,0,0,0,0,0,2.0949,2.0952,2.0987,2.0971,2.097,2.0963,2.0964,2.0986,2.098,2.0967,2.0965,2.0967,2.0976,2.0982,2.0984,2.1018,2.0984,2.0985,2.0986,2.0987,2.1084,2.1085,0,0,0,0,0,0,2.095,2.0952,2.0986,2.0987,2.0956,2.0965,2.0966,2.0976,2.0979,2.0979,2.0968,2.0965,2.098,2.0982,2.0984,2.103,2.0986,2.0987,2.0988,2.1082,2.1084,2.1086,0,0,0,0,0,0,2.0949,2.0953,2.0986,2.0969,2.0972,2.0968,2.0979,2.0977,2.0983,2.098,2.0979,2.0975,2.0979,2.0982,2.1009,2.103,2.0988,2.099,2.108,2.1083,2.1085,2.1122,0,0,0,0,0,0,2.0947,2.0953,2.0967,2.0969,2.0974,2.101,2.098,2.0978,2.0986,2.0983,2.0986,2.0986,2.0978,2.1006,2.1011,2.1032,2.0991,2.1078,2.1081,2.1084,2.1119,2.1125,2.1131,0,0,0,0,0,2.0946,2.0977,2.0968,2.0973,2.0992,2.1012,2.1014,2.1005,2.0988,2.1002,2.1001,2.0986,2.1027,2.1009,2.1014,2.1036,2.1077,2.1081,2.1084,2.1116,2.1124,2.113,0,0,0,0,0,0,2.0978,2.0977,2.0967,2.1,2.1006,2.1007,2.1025,2.1013,2.1024,2.1021,2.1008,2.1009,2.1039,2.104,2.102,2.1074,2.1049,2.1054,2.1072,2.1079,2.1085,2.1085,2.0993,0,0,0,0,0,2.0988,2.1005,2.1003,2.1032,2.1036,2.103,2.1038,2.1031,2.1036,2.1039,2.1039,2.1045,2.106,2.1069,2.1082,2.1118,2.1119,2.1136,2.1142,2.1146,2.1151,2.1171,2.1178,2.1097,2.1097,2.1097,0,0,2.1011,2.1013,2.1024,2.1039,2.1043,2.106,2.1032,2.1052,2.1065,2.1042,2.1068,2.1068,2.1074,2.1106,2.112,2.1108,2.1173,2.1151,2.1155,2.1156,2.1175,2.1183,2.119,2.1099,2.1099,2.1098,0,0,2.1061,2.1064,2.1089,2.1093,2.1099,2.1095,2.1101,2.1104,2.1103,2.1129,2.1112,2.1127,2.1152,2.1157,2.1163,2.1216,2.1203,2.122,2.1251,2.1271,2.1278,2.1283,2.1303,2.131,2.1224,2.1224,2.1224,0,2.1089,2.1114,2.1103,2.1124,2.1132,2.1111,2.1137,2.1142,2.1152,2.1157,2.1143,2.1175,2.1177,2.121,2.1223,2.1228,2.1235,2.122,2.1277,2.1283,2.1288,2.1307,2.1314,2.1226,2.1226,2.1226,2.1226,0,2.1148,2.1166,2.1186,2.1196,2.1206,2.1229,2.1221,2.1232,2.1223,2.1221,2.1248,2.125,2.1263,2.127,2.1262,2.1303,2.1295,2.1279,2.1255,2.1298,2.1316,2.1323,2.123,2.1229,2.1228,2.1228,0,0,2.122,2.1224,2.1231,2.1236,2.1241,2.1255,2.1277,2.1291,2.1301,2.1308,2.1327,2.1348,2.1334,2.1341,2.1333,2.135,2.1392,2.1332,2.1332,2.1344,2.1439,2.1451,2.146,2.1383,2.1384,2.1385,2.1438,0,2.1271,2.1309,2.13,2.1338,2.1355,2.1336,2.1355,2.136,2.1358,2.1373,2.137,2.1386,2.1365,2.1369,2.1385,2.1384,2.1411,2.138,2.1401,2.1402,2.1402,2.1469,2.1482,2.1532,2.1445,2.1446,2.1447,0,2.1335,2.1346,2.1386,2.1388,2.1395,2.1413,2.1425,2.1438,2.1444,2.1441,2.1449,2.1437,2.146,2.1434,2.1465,2.1443,2.1451,2.1452,2.1454,2.1456,2.1428,2.1474,2.1548,2.1556,2.1457,2.1457,2.1456,0,2.1385,2.1409,2.1436,2.144,2.1444,2.1457,2.1459,2.1464,2.1472,2.1482,2.1488,2.1501,2.1508,2.1518,2.151,2.1492,2.1542,2.1516,2.1541,2.1542,2.1554,2.1554,2.1631,2.1557,2.1557,2.1557,2.1557,0,2.1443,2.1469,2.1458,2.1475,2.1503,2.1492,2.152,2.152,2.1524,2.1541,2.1524,2.1541,2.1529,2.1544,2.1538,2.1565,2.1568,2.1567,2.1565,2.1569,2.1569,2.1575,2.1572,2.1559,2.1558,2.1558,2.1558,0,2.1504,2.1498,2.1527,2.1528,2.1529,2.155,2.1551,2.1566,2.1563,2.1584,2.1589,2.1584,2.1601,2.1593,2.1611,2.1607,2.1642,2.1635,2.164,2.1639,2.1666,2.1664,2.1751,2.1762,2.1679,2.168,2.1681,0,2.1543,2.1562,2.1565,2.1576,2.1579,2.1595,2.1604,2.1593,2.1604,2.1612,2.1627,2.1642,2.1654,2.1682,2.168,2.1694,2.1688,2.1717,2.169,2.1693,2.169,2.1689,2.1691,2.1723,2.1724,2.1725,2.1725,0,2.1612,2.1608,2.1622,2.1635,2.1646,2.1655,2.1663,2.1672,2.1662,2.1674,2.1691,2.1701,2.1719,2.1735,2.1747,2.1749,2.1736,2.1734,2.1741,2.1746,2.1748,2.1749,2.1657,2.1732,2.1731,2.1731,2.1731,2.173,2.1664,2.1681,2.1686,2.1702,2.1706,2.1714,2.1729,2.1728,2.1742,2.1756,2.1749,2.1769,2.1774,2.1789,2.1793,2.1809,2.1798,2.1807,2.181,2.1813,2.1817,2.1745,2.1811,2.1811,2.1811,2.181,2.181,0,2.1734,2.1736,2.1751,2.1762,2.1775,2.1761,2.1769,2.1781,2.1799,2.1805,2.1817,2.1837,2.1852,2.1851,2.1865,2.1878,2.1873,2.1882,2.1882,2.1883,2.1826,2.1819,2.1887,2.1887,2.1887,2.1887,2.1887,2.1887,2.1772,2.1799,2.1796,2.1826,2.1828,2.1848,2.1854,2.1861,2.1866,2.1889,2.1902,2.1901,2.1904,2.1918,2.1932,2.1931,2.1938,2.195,2.1947,2.1894,2.1887,2.188,2.1873,2.1951,2.1951,2.2003,2.2004,2.2004]}]]